| time (UTC) | temp F | wind direction | speed knots | gust knots | rain 1hr in | rain 24hr in | rain mn in | humidity % | barometer mb |
| 20260508010045 | 64 | 168 | 0.9 | 0.0 | 0.00 | 0.00 | 0.00 | 27 | 1008.6 |
| 20260508004543 | 65 | 147 | 0.9 | 0.0 | 0.00 | 0.00 | 0.00 | 26 | 1008.0 |
| 20260508003049 | 65 | 295 | 0.9 | 0.0 | 0.00 | 0.00 | 0.00 | 27 | 1008.1 |
| 20260508001543 | 65 | 133 | 0.9 | 0.0 | 0.00 | 0.00 | 0.00 | 26 | 1008.6 |
| 20260508000040 | 65 | 138 | 1.7 | 0.0 | 0.00 | 0.00 | 0.00 | 30 | 1008.0 |
| 20260507234541 | 66 | 200 | 1.7 | 0.0 | 0.00 | 0.00 | 0.00 | 26 | 1008.0 |
| 20260507233041 | 67 | 133 | 0.9 | 0.0 | 0.00 | 0.00 | 0.00 | 26 | 1007.6 |
| 20260507231550 | 67 | 329 | 0.9 | 0.0 | 0.00 | 0.00 | 0.00 | 27 | 1007.4 |
| 20260507230040 | 67 | 217 | 0.9 | 0.0 | 0.00 | 0.00 | 0.00 | 27 | 1007.3 |
| 20260507224551 | 66 | 280 | 0.9 | 0.0 | 0.00 | 0.00 | 0.00 | 24 | 1007.7 |
| 20260507223043 | 66 | 210 | 1.7 | 0.0 | 0.00 | 0.00 | 0.00 | 26 | 1007.7 |
| 20260507221539 | 66 | 144 | 1.7 | 0.0 | 0.00 | 0.00 | 0.00 | 24 | 1008.4 |
| 20260507220037 | 67 | 240 | 0.9 | 0.0 | 0.00 | 0.00 | 0.00 | 24 | 1007.8 |
| 20260507214539 | 67 | 288 | 0.9 | 0.0 | 0.00 | 0.00 | 0.00 | 22 | 1007.7 |
| 20260507213036 | 67 | 237 | 0.9 | 0.0 | 0.00 | 0.00 | 0.00 | 24 | 1007.8 |
| 20260507211531 | 68 | 268 | 0.9 | 0.0 | 0.00 | 0.00 | 0.00 | 23 | 1007.9 |
| 20260507210056 | 67 | 205 | 0.0 | 0.0 | 0.00 | 0.00 | 0.00 | 24 | 1007.9 |
| 20260507204530 | 67 | 186 | 0.9 | 0.0 | 0.00 | 0.00 | 0.00 | 27 | 1007.8 |
| 20260507203029 | 67 | 282 | 0.9 | 0.0 | 0.00 | 0.00 | 0.00 | 17 | 1008.2 |
| 20260507201534 | 68 | 1 | 0.0 | 0.0 | 0.00 | 0.00 | 0.00 | 18 | 1008.4 |
| 20260507200047 | 68 | 251 | 0.9 | 0.0 | 0.00 | 0.00 | 0.00 | 18 | 1008.4 |
| 20260507194526 | 67 | 350 | 0.9 | 0.0 | 0.00 | 0.00 | 0.00 | 20 | 1008.2 |
| 20260507193040 | 66 | 332 | 0.9 | 0.0 | 0.00 | 0.00 | 0.00 | 21 | 1008.9 |
| 20260507191527 | 66 | 79 | 0.9 | 0.0 | 0.00 | 0.00 | 0.00 | 21 | 1009.1 |
| 20260507190031 | 66 | 239 | 0.9 | 0.0 | 0.00 | 0.00 | 0.00 | 22 | 1009.1 |
| 20260507184515 | 64 | 308 | 0.0 | 0.0 | 0.00 | 0.00 | 0.00 | 22 | 1009.3 |
| 20260507183018 | 63 | 332 | 0.9 | 0.0 | 0.00 | 0.00 | 0.00 | 23 | 1009.8 |
| 20260507181507 | 62 | 316 | 0.0 | 0.0 | 0.00 | 0.00 | 0.00 | 25 | 1009.9 |
| 20260507180004 | 62 | 83 | 0.9 | 0.0 | 0.00 | 0.00 | 0.00 | 24 | 1009.9 |
| 20260507174608 | 61 | 62 | 0.0 | 0.0 | 0.00 | 0.00 | 0.00 | 26 | 1010.0 |
| 20260507173133 | 61 | 66 | 0.0 | 0.0 | 0.00 | 0.00 | 0.00 | 26 | 1010.5 |
| 20260507171601 | 60 | 247 | 0.0 | 0.0 | 0.00 | 0.00 | 0.00 | 27 | 1010.5 |
| 20260507170055 | 59 | 320 | 0.0 | 0.0 | 0.00 | 0.00 | 0.00 | 27 | 1009.9 |
| 20260507164600 | 59 | 336 | 0.0 | 0.0 | 0.00 | 0.00 | 0.00 | 28 | 1009.8 |
| 20260507163051 | 58 | 354 | 0.0 | 0.0 | 0.00 | 0.00 | 0.00 | 28 | 1010.5 |
| 20260507161559 | 56 | 40 | 0.0 | 0.0 | 0.00 | 0.00 | 0.00 | 27 | 1010.6 |
| 20260507160101 | 55 | 41 | 0.0 | 0.0 | 0.00 | 0.00 | 0.00 | 29 | 1010.7 |
| 20260507154541 | 53 | 48 | 0.0 | 0.0 | 0.00 | 0.00 | 0.00 | 31 | 1011.0 |
| 20260507153036 | 51 | 49 | 0.0 | 0.0 | 0.00 | 0.00 | 0.00 | 40 | 1011.4 |
| 20260507151532 | 47 | 49 | 0.0 | 0.0 | 0.00 | 0.00 | 0.00 | 42 | 1012.4 |
| 20260507150028 | 45 | 49 | 0.0 | 0.0 | 0.00 | 0.00 | 0.00 | 52 | 1011.7 |
| 20260507144535 | 43 | 49 | 0.0 | 0.0 | 0.00 | 0.00 | 0.00 | 64 | 1012.1 |
| 20260507143023 | 41 | 49 | 0.0 | 0.0 | 0.00 | 0.00 | 0.00 | 67 | 1012.1 |
| 20260507141526 | 40 | 49 | 0.0 | 0.0 | 0.00 | 0.00 | 0.00 | 66 | 1012.4 |
| 20260507140023 | 40 | 49 | 0.0 | 0.0 | 0.00 | 0.00 | 0.00 | 64 | 1011.4 |
| 20260507134521 | 40 | 49 | 0.0 | 0.0 | 0.00 | 0.00 | 0.00 | 62 | 1011.4 |
| 20260507133020 | 40 | 49 | 0.0 | 0.0 | 0.00 | 0.00 | 0.00 | 61 | 1011.3 |
| 20260507131520 | 40 | 49 | 0.0 | 0.0 | 0.00 | 0.00 | 0.00 | 61 | 1011.1 |
| 20260507130027 | 40 | 49 | 0.0 | 0.0 | 0.00 | 0.00 | 0.00 | 60 | 1010.0 |
| 20260507124517 | 40 | 49 | 0.0 | 0.0 | 0.00 | 0.00 | 0.00 | 60 | 1009.4 |
| 20260507123021 | 40 | 49 | 0.0 | 0.0 | 0.00 | 0.00 | 0.00 | 61 | 1009.3 |
| 20260507121514 | 40 | 49 | 0.0 | 0.0 | 0.00 | 0.00 | 0.00 | 59 | 1009.5 |
| 20260507120014 | 40 | 49 | 0.0 | 0.0 | 0.00 | 0.00 | 0.00 | 60 | 1009.4 |
| 20260507114512 | 40 | 49 | 0.0 | 0.0 | 0.00 | 0.00 | 0.00 | 60 | 1009.4 |
| 20260507113011 | 40 | 49 | 0.0 | 0.0 | 0.00 | 0.00 | 0.00 | 60 | 1009.4 |
| 20260507111511 | 41 | 49 | 0.0 | 0.0 | 0.00 | 0.00 | 0.00 | 61 | 1009.5 |
| 20260507110010 | 41 | 49 | 0.0 | 0.0 | 0.00 | 0.00 | 0.00 | 62 | 1009.8 |
| 20260507104508 | 41 | 49 | 0.0 | 0.0 | 0.00 | 0.00 | 0.00 | 63 | 1009.3 |
| 20260507103007 | 41 | 49 | 0.0 | 0.0 | 0.00 | 0.00 | 0.00 | 63 | 1009.5 |
| 20260507101513 | 41 | 49 | 0.0 | 0.0 | 0.00 | 0.00 | 0.00 | 64 | 1009.4 |
| 20260507100005 | 41 | 49 | 0.0 | 0.0 | 0.00 | 0.00 | 0.00 | 64 | 1009.9 |
| 20260507094503 | 42 | 49 | 0.0 | 0.0 | 0.00 | 0.00 | 0.00 | 64 | 1010.0 |
| 20260507093003 | 42 | 49 | 0.0 | 0.0 | 0.00 | 0.00 | 0.00 | 65 | 1010.2 |
| 20260507091502 | 42 | 49 | 0.0 | 0.0 | 0.00 | 0.00 | 0.00 | 64 | 1010.2 |
| 20260507090113 | 42 | 49 | 0.0 | 0.0 | 0.00 | 0.00 | 0.00 | 65 | 1009.8 |
| 20260507084601 | 42 | 49 | 0.0 | 0.0 | 0.00 | 0.00 | 0.00 | 65 | 1009.9 |
| 20260507083059 | 42 | 49 | 0.0 | 0.0 | 0.00 | 0.00 | 0.00 | 65 | 1009.9 |
| 20260507081558 | 42 | 49 | 0.0 | 0.0 | 0.00 | 0.00 | 0.00 | 65 | 1009.7 |
| 20260507080055 | 42 | 49 | 0.0 | 0.0 | 0.00 | 0.00 | 0.00 | 64 | 1010.3 |
| 20260507074558 | 43 | 49 | 0.0 | 0.0 | 0.00 | 0.00 | 0.00 | 62 | 1010.3 |
| 20260507073054 | 43 | 49 | 0.0 | 0.0 | 0.00 | 0.00 | 0.00 | 59 | 1010.3 |
| 20260507071554 | 43 | 49 | 0.0 | 0.0 | 0.00 | 0.00 | 0.00 | 55 | 1010.4 |
| 20260507070055 | 43 | 49 | 0.0 | 0.0 | 0.00 | 0.00 | 0.00 | 50 | 1010.9 |
| 20260507064607 | 43 | 49 | 0.0 | 0.0 | 0.00 | 0.00 | 0.00 | 47 | 1011.1 |
| 20260507063056 | 43 | 49 | 0.0 | 0.0 | 0.00 | 0.00 | 0.00 | 47 | 1011.0 |
| 20260507061552 | 43 | 49 | 0.0 | 0.0 | 0.00 | 0.00 | 0.00 | 43 | 1011.1 |
| 20260507060058 | 44 | 49 | 0.0 | 0.0 | 0.00 | 0.00 | 0.00 | 42 | 1012.3 |
| 20260507054603 | 44 | 49 | 0.0 | 0.0 | 0.00 | 0.00 | 0.00 | 46 | 1011.4 |
| 20260507053052 | 45 | 49 | 0.0 | 0.0 | 0.00 | 0.00 | 0.00 | 45 | 1011.3 |
| 20260507051551 | 46 | 49 | 0.0 | 0.0 | 0.00 | 0.00 | 0.00 | 44 | 1011.3 |
| 20260507050050 | 46 | 49 | 0.0 | 0.0 | 0.00 | 0.00 | 0.00 | 43 | 1011.3 |
| 20260507044550 | 46 | 49 | 0.0 | 0.0 | 0.00 | 0.00 | 0.00 | 41 | 1011.3 |
| 20260507043057 | 47 | 49 | 0.0 | 0.0 | 0.00 | 0.00 | 0.00 | 42 | 1011.3 |
| 20260507041600 | 48 | 49 | 0.0 | 0.0 | 0.00 | 0.00 | 0.00 | 42 | 1011.1 |
| 20260507040055 | 49 | 49 | 0.0 | 0.0 | 0.00 | 0.00 | 0.00 | 42 | 1010.9 |
| 20260507034550 | 50 | 49 | 0.0 | 0.0 | 0.00 | 0.00 | 0.00 | 39 | 1010.2 |
| 20260507033050 | 51 | 49 | 0.0 | 0.0 | 0.00 | 0.00 | 0.00 | 38 | 1009.7 |
| 20260507031546 | 53 | 49 | 0.0 | 0.0 | 0.00 | 0.00 | 0.00 | 35 | 1009.6 |
| 20260507030046 | 54 | 49 | 0.0 | 0.0 | 0.00 | 0.00 | 0.00 | 32 | 1010.6 |
| 20260507024546 | 55 | 49 | 0.0 | 0.0 | 0.00 | 0.00 | 0.00 | 29 | 1010.4 |
| 20260507023056 | 55 | 62 | 0.0 | 0.0 | 0.00 | 0.00 | 0.00 | 27 | 1009.7 |
| 20260507021550 | 56 | 47 | 0.0 | 0.0 | 0.00 | 0.00 | 0.00 | 26 | 1009.6 |
| 20260507020044 | 57 | 35 | 0.0 | 0.0 | 0.00 | 0.00 | 0.00 | 26 | 1011.7 |
| 20260507014556 | 58 | 66 | 0.0 | 0.0 | 0.00 | 0.00 | 0.00 | 26 | 1011.1 |
| 20260507013103 | 59 | 117 | 0.0 | 0.0 | 0.00 | 0.00 | 0.00 | 26 | 1010.7 |
| 20260507011543 | 61 | 28 | 0.0 | 0.0 | 0.00 | 0.00 | 0.00 | 25 | 1010.3 |